SV1BYK-2 Weather Reports


Display with metric or nautical units.
time (UTC)temp
F
wind
direction
speed
MPH
gust
MPH
rain 1hr
in
rain 24hr
in
rain mn
in
humidity
%
barometer
mb
20260505052703 61 270 0.0 2.0 0.00 0.00 0.00 60 1011.2
20260505052014 59 270 0.0 2.0 0.00 0.00 0.00 62 1011.0
20260505050904 57 270 0.0 2.0 0.00 0.00 0.00 66 1011.1
20260505040904 52 270 0.0 2.0 0.00 0.00 0.00 71 1011.0
20260505040004 52 270 0.0 2.0 0.00 0.00 0.00 71 1010.9
20260505035616 52 270 0.0 2.0 0.00 0.00 0.00 71 1010.9
20260505034503 52 280 0.0 2.0 0.00 0.00 0.00 71 1011.0
20260505033816 52 292 0.0 2.0 0.00 0.00 0.00 71 1011.0
20260505032703 52 292 0.0 2.0 0.00 0.00 0.00 71 1011.0
20260505032016 52 292 0.0 2.0 0.00 0.00 0.00 70 1010.8
20260505030904 52 292 1.0 2.0 0.00 0.00 0.00 69 1010.8
20260505030215 52 292 0.0 2.0 0.00 0.00 0.00 69 1010.9
20260505025617 52 292 0.0 2.0 0.00 0.00 0.00 68 1010.8
20260505024714 52 292 1.0 2.0 0.00 0.00 0.00 69 1010.9
20260505023603 52 292 0.0 2.0 0.00 0.00 0.00 69 1010.8
20260505022914 52 0 0.0 0.0 0.00 0.00 0.00 69 1010.8
20260505021804 52 292 0.0 2.0 0.00 0.00 0.00 69 1010.9
20260505021114 52 292 0.0 2.0 0.00 0.00 0.00 69 1011.0
20260505020004 52 292 0.0 2.0 0.00 0.00 0.00 70 1010.8
20260505015403 52 292 0.0 2.0 0.00 0.00 0.00 70 1011.0
20260505014503 52 292 0.0 2.0 0.00 0.00 0.00 70 1011.1
20260505013603 53 292 0.0 2.0 0.00 0.00 0.00 70 1010.8
20260505012703 53 292 1.0 2.0 0.00 0.00 0.00 70 1011.0
20260505011804 53 292 0.0 2.0 0.00 0.00 0.00 70 1011.3
20260505011114 53 292 0.0 2.0 0.00 0.00 0.00 70 1011.2
20260505010004 53 292 0.0 2.0 0.00 0.00 0.00 69 1011.3
20260505005613 53 292 0.0 2.0 0.00 0.00 0.00 69 1011.3
20260505004503 53 292 0.0 2.0 0.00 0.00 0.00 69 1011.4
20260505003603 53 292 0.0 2.0 0.00 0.00 0.00 69 1011.3
20260505002915 53 292 0.0 2.0 0.00 0.00 0.00 68 1011.3
20260505002018 53 292 0.0 2.0 0.00 0.00 0.00 68 1011.5
20260505000904 54 292 0.0 2.0 0.00 0.00 0.00 66 1011.5
20260505000004 53 292 0.0 2.0 0.00 0.00 0.00 66 1011.5
20260504235403 54 292 0.0 2.0 0.00 0.00 0.00 66 1011.7
20260504234716 54 292 1.0 2.0 0.00 0.00 0.00 66 1011.5
20260504233813 54 292 0.0 2.0 0.00 0.00 0.00 66 1011.6
20260504232703 54 292 0.0 2.0 0.00 0.00 0.00 67 1011.8
20260504232013 54 292 0.0 2.0 0.00 0.00 0.00 67 1011.7
20260504231115 54 0 0.0 0.0 0.00 0.00 0.00 66 1011.9
20260504230218 54 292 0.0 2.0 0.00 0.00 0.00 66 1012.1
20260504225403 55 292 0.0 2.0 0.00 0.00 0.00 65 1012.1
20260504224503 55 292 0.0 2.0 0.00 0.00 0.00 66 1012.0
20260504223603 55 0 0.0 0.0 0.00 0.00 0.00 66 1012.2
20260504222703 55 292 0.0 2.0 0.00 0.00 0.00 66 1012.0
20260504221803 55 292 0.0 2.0 0.00 0.00 0.00 66 1012.5
20260504221116 55 292 0.0 2.0 0.00 0.00 0.00 67 1012.3
20260504220213 56 292 0.0 2.0 0.00 0.00 0.00 70 1012.3
20260504215403 57 292 0.0 2.0 0.00 0.00 0.00 70 1012.4
20260504214503 57 0 0.0 0.0 0.00 0.00 0.00 69 1012.3
20260504213603 58 292 0.0 2.0 0.00 0.00 0.00 68 1012.5
20260504212703 58 292 2.0 2.0 0.00 0.00 0.00 68 1012.3
20260504212014 58 292 1.0 2.0 0.00 0.00 0.00 67 1012.2
20260504211117 58 292 2.0 2.0 0.00 0.00 0.00 67 1012.2
20260504210219 58 281 1.0 4.0 0.00 0.00 0.00 67 1012.3
20260504205403 59 272 2.0 4.0 0.00 0.00 0.00 67 1012.4
20260504204503 58 270 0.0 2.0 0.00 0.00 0.00 67 1012.4
20260504203815 58 270 0.0 4.0 0.00 0.00 0.00 67 1012.4
20260504202703 59 265 1.0 4.0 0.00 0.00 0.00 66 1012.4
20260504201804 59 261 0.0 4.0 0.00 0.00 0.00 66 1012.5
20260504201117 59 264 1.0 4.0 0.00 0.00 0.00 66 1012.4
20260504200004 59 247 1.0 4.0 0.00 0.00 0.00 65 1012.5
20260504195403 59 242 2.0 4.0 0.00 0.00 0.00 64 1012.7
20260504194714 59 246 1.0 6.0 0.00 0.00 0.00 64 1012.5
20260504193816 59 243 1.0 4.0 0.00 0.00 0.00 63 1012.5
20260504192703 59 238 2.0 4.0 0.00 0.00 0.00 62 1012.5
20260504191804 59 247 1.0 4.0 0.00 0.00 0.00 62 1012.3
20260504191113 59 227 2.0 4.0 0.00 0.00 0.00 61 1012.5
20260504190004 60 238 2.0 4.0 0.00 0.00 0.00 60 1012.3
20260504185617 60 222 1.0 6.0 0.00 0.00 0.00 60 1012.1
20260504184503 60 217 2.0 4.0 0.00 0.00 0.00 60 1012.2
20260504183817 60 157 2.0 4.0 0.00 0.00 0.00 59 1012.1
20260504182914 60 187 2.0 4.0 0.00 0.00 0.00 58 1012.2
20260504182016 60 231 1.0 7.0 0.00 0.00 0.00 59 1012.1
20260504181114 60 266 2.0 4.0 0.00 0.00 0.00 58 1011.9
20260504180216 60 267 2.0 4.0 0.00 0.00 0.00 58 1011.8
20260504175403 60 241 1.0 4.0 0.00 0.00 0.00 57 1011.8
20260504174715 60 248 1.0 4.0 0.00 0.00 0.00 56 1012.0
20260504173818 60 257 1.0 7.0 0.00 0.00 0.00 56 1011.8
20260504172703 60 260 3.0 7.0 0.00 0.00 0.00 58 1011.8
20260504172017 61 246 2.0 4.0 0.00 0.00 0.00 57 1011.7
20260504171114 61 252 2.0 6.0 0.00 0.00 0.00 57 1011.5
20260504150903 71 276 5.0 11.0 0.00 0.00 0.00 25 1011.5
20260504150218 72 310 2.0 8.0 0.00 0.00 0.00 25 1011.5
20260504141116 73 300 2.0 11.0 0.00 0.00 0.00 25 1011.5
20260504130214 67 300 9.0 16.0 0.00 0.00 0.00 29 1011.7
20260504100216 65 311 3.0 16.0 0.00 0.00 0.00 36 1013.6
20260504081804 64 331 2.0 16.0 0.00 0.00 0.00 36 1013.4
20260504081115 64 310 4.0 13.0 0.00 0.00 0.00 37 1013.7
20260504080217 64 328 2.0 22.0 0.00 0.00 0.00 36 1013.6
20260504070218 60 288 0.0 9.0 0.00 0.00 0.00 46 1013.4
20260504060213 59 297 1.0 2.0 0.00 0.00 0.00 51 1013.1